Location: Hebron
(33.0265°N, 96.8636°W)
Time: 11:54:54
(UTC+00:00)

SJ 16-02 - Pass Details

Date: 08 December 2021
Orbit: 605 x 616 km, 75.0° (Epoch: 23 January)

Event Time Altitude Azimuth Distance (km) Brightness Sun altitude
Rises 11:59:11 0° 211° (SSW) 2,849 4.6 -16.2°
Reaches altitude 10° 12:01:31 10° 219° (SW) 1,948 3.7 -15.7°
Maximum altitude 12:05:36 39° 289° (WNW) 913 1.7 -14.9°
Drops below altitude 10° 12:09:41 10° 359° (N) 1,956 3.7 -14.1°
Sets 12:12:03 0° 7° (N) 2,862 4.7 -13.6°
